User: anonymous   Login
Location: Unspecified
(0.0000°N, 0.0000°E)
Time: 18:51:17
(UTC+00:00)
Language:

RASAT - Orbit

View from above orbital plane
View from above orbital plane
View from above satellite
View from above satellite

Ground track
Ground track

The orbit data is extracted from the following two-line orbital elements,

1 37791U 11044D   19341.39273126  .00000028  00000-0  14186-4 0  9992
2 37791  98.1171  71.9643 0022368 155.0166 205.2125 14.64744417443988
Epoch (UTC): 07 December 2019 09:25:31
Eccentricity: 0.0022368
inclination: 98.1171°
perigee height: 662 km
apogee height: 693 km
right ascension of ascending node: 71.9643°
argument of perigee: 155.0166°
revolutions per day: 14.64744417
mean anomaly at epoch: 205.2125°
orbit number at epoch: 44398

The dashed part of the orbit path shows where the satellite is in the earth's shadow,  

DLR